STARLINK-1805, 46705

Orbit data source: Space-Track

STARLINK-1805, 46705 is a payload satellite owned by SpaceX/Seattle (US) in LEO that was launched on Sun, 18 Oct 2020 UTC via an FALCON 9 launch vehicle from the Air Force Eastern Test Range (AFETR). Payload-class satellites include a variety of spacecraft equipped with specific instruments for various scientific and technological missions. These include communications satellites like Starlink; space stations such as the ISS; scientific satellites like the Hubble; Earth observation satellites from companies like Planet Labs, Umbra, and HawkEye 360; GPS; miniature CubeSats for education and research; and military/defense satellites.

Loading next visibility...
Identifier
46705, 2020-073AM
Orbit
LEO
Country
Flag of USUS
Related business
Manufacturer
SpaceX/Seattle
Mission
Partially operational Commercial Communications
Bus & Motor
STARLINK, Unknown motor
Mass
260 kg wet, ~248 kg dry
Launch date (UTC)
2020-10-18 (6 years ago)
Launch vehicle
FALCON 9
Launch site
Air Force Eastern Test Range (AFETR)
Object type
Payload
Rocket body
Debris
Shape & HBR
Box + 1 Pan, 10.1 m
Radar Cross Section
13.562 m², Large (>1 m²)

Expand to show TLE details & history
Last TLE update: 13 hours ago

TLE from 13 hours ago
0 STARLINK-1805
1 46705U 20073AM  26127.97587709  .00115643  00000-0  11827-2 0  9995
2 46705  53.0466 315.6928 0002067 161.3986 198.7104 15.64181795306344
Epoch: 2026-05-07T23:25Z
TLE epoch observation values (Epoch: 2026-05-07T23:25:15.780Z)
Latitude
-0.00002°
Longitude
98.56274°
Altitude
377.816 km
Speed
7.684 km/s
True Right ascension
21h 02m 46s
True Declination
0° 00' 00"
Sunlit
Object was in daylight at epoch
Visualization orbit readout
Latitude
Unknown
Longitude
Unknown
Altitude
Unknown
Speed
Unknown
Apparent Right ascension
Unknown
Apparent Declination
Unknown
Sunlit
N/A
Visualization observer readout
Local Sidereal Time
20:58:59
Azimuth
Unknown
Elevation
Unknown
Doppler factor
Unknown
Orbital elements
Apogee altitude
377.268 km
Perigee altitude
374.476 km
Semi-major axis
6,754.009 km
Eccentricity
0.00021
Inclination
53.0466°
RAAN
315.6928°
Arg. of periapsis
161.3986°
True anomaly
198.7028°
Mean anomaly
198.7104°
Eccentric anomaly
198.7066°
Mean motion
3.91022 °/min
Orbital period
92.07 mins
BSTAR
0.0011827
Loading maneuver chart data...
Computing Atmospheric mass density...
Loading historical data...
Loading historical data...
Loading historical data...
Loading historical data...
Loading historical data...
Loading historical data...
Loading historical data...

Documentation

Showing up to 5 results
|